| time (UTC) | temp F | wind direction | speed knots | gust knots | rain 1hr in | rain 24hr in | rain mn in | humidity % | barometer mb |
| 20260506215531 | 48 | 0.0 | 0.0 | 0.00 | 0.00 | 0.00 | 72 | 1010.4 | |
| 20260506215029 | 48 | 332 | 0.0 | 0.9 | 0.00 | 0.00 | 0.00 | 69 | 1010.4 |
| 20260506214548 | 48 | 0.0 | 0.0 | 0.00 | 0.00 | 0.00 | 69 | 1010.3 | |
| 20260506214026 | 48 | 0.0 | 0.0 | 0.00 | 0.00 | 0.00 | 70 | 1010.2 | |
| 20260506213524 | 48 | 346 | 0.9 | 3.5 | 0.00 | 0.00 | 0.00 | 68 | 1010.3 |
| 20260506213023 | 48 | 7 | 0.0 | 0.9 | 0.00 | 0.00 | 0.00 | 68 | 1010.3 |
| 20260506212541 | 49 | 360 | 0.9 | 5.2 | 0.00 | 0.00 | 0.00 | 67 | 1010.1 |
| 20260506212019 | 49 | 335 | 0.9 | 2.6 | 0.00 | 0.00 | 0.00 | 67 | 1010.1 |
| 20260506211517 | 49 | 356 | 1.7 | 3.5 | 0.00 | 0.00 | 0.00 | 66 | 1010.0 |
| 20260506211016 | 49 | 354 | 1.7 | 2.6 | 0.00 | 0.00 | 0.00 | 66 | 1010.1 |
| 20260506210534 | 49 | 16 | 1.7 | 3.5 | 0.00 | 0.00 | 0.00 | 65 | 1010.0 |
| 20260506210032 | 49 | 345 | 0.0 | 0.9 | 0.00 | 0.00 | 0.00 | 73 | 1009.9 |
| 20260506205530 | 49 | 0.0 | 0.0 | 0.00 | 0.00 | 0.00 | 74 | 1009.8 | |
| 20260506205029 | 49 | 0.0 | 0.0 | 0.00 | 0.00 | 0.00 | 72 | 1009.9 | |
| 20260506204527 | 49 | 192 | 0.0 | 0.9 | 0.00 | 0.00 | 0.00 | 72 | 1009.9 |
| 20260506204105 | 49 | 0.0 | 0.0 | 0.00 | 0.00 | 0.00 | 71 | 1009.8 | |
| 20260506203527 | 49 | 228 | 0.0 | 0.9 | 0.00 | 0.00 | 0.00 | 72 | 1009.7 |
| 20260506203022 | 49 | 10 | 0.9 | 1.7 | 0.00 | 0.00 | 0.00 | 72 | 1009.5 |
| 20260506202520 | 49 | 0.0 | 0.0 | 0.00 | 0.00 | 0.00 | 72 | 1009.6 | |
| 20260506202059 | 49 | 0.0 | 0.0 | 0.00 | 0.00 | 0.00 | 70 | 1009.6 | |
| 20260506201516 | 49 | 0.0 | 0.0 | 0.00 | 0.00 | 0.00 | 72 | 1009.3 | |
| 20260506201035 | 49 | 0.0 | 0.0 | 0.00 | 0.00 | 0.00 | 71 | 1009.2 | |
| 20260506200533 | 49 | 0.0 | 0.0 | 0.00 | 0.00 | 0.00 | 71 | 1009.1 | |
| 20260506200031 | 49 | 0.0 | 0.0 | 0.00 | 0.00 | 0.00 | 71 | 1008.9 | |
| 20260506195529 | 49 | 0.0 | 0.0 | 0.00 | 0.00 | 0.00 | 72 | 1008.8 | |
| 20260506195028 | 49 | 0.0 | 0.0 | 0.00 | 0.00 | 0.00 | 70 | 1008.7 | |
| 20260506194528 | 49 | 0.0 | 0.0 | 0.00 | 0.00 | 0.00 | 70 | 1008.8 | |
| 20260506194024 | 50 | 0.0 | 0.0 | 0.00 | 0.00 | 0.00 | 70 | 1008.6 | |
| 20260506193522 | 50 | 0.0 | 0.0 | 0.00 | 0.00 | 0.00 | 70 | 1008.6 | |
| 20260506193020 | 50 | 0.0 | 0.0 | 0.00 | 0.00 | 0.00 | 69 | 1008.5 | |
| 20260506192519 | 50 | 0.0 | 0.0 | 0.00 | 0.00 | 0.00 | 68 | 1008.5 | |
| 20260506192037 | 50 | 0.0 | 0.0 | 0.00 | 0.00 | 0.00 | 69 | 1008.5 | |
| 20260506191534 | 51 | 0.0 | 0.0 | 0.00 | 0.00 | 0.00 | 68 | 1008.4 | |
| 20260506191033 | 51 | 0.0 | 0.0 | 0.00 | 0.00 | 0.00 | 67 | 1008.4 | |
| 20260506190553 | 51 | 151 | 0.0 | 0.9 | 0.00 | 0.00 | 0.00 | 66 | 1008.2 |
| 20260506190029 | 51 | 346 | 0.0 | 0.9 | 0.00 | 0.00 | 0.00 | 64 | 1008.2 |
| 20260506185527 | 52 | 5 | 0.0 | 1.7 | 0.00 | 0.00 | 0.00 | 63 | 1008.1 |
| 20260506185026 | 52 | 0.0 | 0.0 | 0.00 | 0.00 | 0.00 | 61 | 1008.0 | |
| 20260506184523 | 52 | 217 | 0.0 | 1.7 | 0.00 | 0.00 | 0.00 | 60 | 1008.0 |
| 20260506184022 | 52 | 194 | 0.9 | 3.5 | 0.00 | 0.00 | 0.00 | 59 | 1007.9 |
| 20260506183520 | 53 | 349 | 1.7 | 3.5 | 0.00 | 0.00 | 0.00 | 59 | 1007.8 |
| 20260506183018 | 54 | 326 | 0.9 | 2.6 | 0.00 | 0.00 | 0.00 | 58 | 1007.8 |
| 20260506182517 | 54 | 159 | 0.0 | 0.9 | 0.00 | 0.00 | 0.00 | 61 | 1007.8 |
| 20260506182035 | 54 | 17 | 0.0 | 2.6 | 0.00 | 0.00 | 0.00 | 59 | 1007.7 |
| 20260506181533 | 54 | 0.0 | 0.0 | 0.00 | 0.00 | 0.00 | 65 | 1007.6 | |
| 20260506181031 | 54 | 359 | 0.9 | 2.6 | 0.00 | 0.00 | 0.00 | 63 | 1007.5 |
| 20260506180529 | 54 | 186 | 0.0 | 2.6 | 0.00 | 0.00 | 0.00 | 62 | 1007.2 |
| 20260506180048 | 54 | 205 | 0.0 | 0.9 | 0.00 | 0.00 | 0.00 | 61 | 1007.0 |
| 20260506175525 | 55 | 0.0 | 0.0 | 0.00 | 0.00 | 0.00 | 62 | 1007.0 | |
| 20260506175103 | 56 | 25 | 0.9 | 2.6 | 0.00 | 0.00 | 0.00 | 59 | 1006.8 |
| 20260506174521 | 56 | 12 | 1.7 | 6.1 | 0.00 | 0.00 | 0.00 | 55 | 1006.7 |
| 20260506174019 | 56 | 0 | 0.9 | 2.6 | 0.00 | 0.00 | 0.00 | 54 | 1006.6 |
| 20260506173517 | 56 | 21 | 0.9 | 3.5 | 0.00 | 0.00 | 0.00 | 54 | 1006.4 |
| 20260506173016 | 55 | 28 | 0.0 | 5.2 | 0.00 | 0.00 | 0.00 | 61 | 1006.5 |
| 20260506172534 | 55 | 38 | 0.0 | 0.9 | 0.00 | 0.00 | 0.00 | 64 | 1006.4 |
| 20260506172032 | 56 | 0.0 | 0.0 | 0.00 | 0.00 | 0.00 | 65 | 1006.4 | |
| 20260506171530 | 56 | 0.0 | 0.0 | 0.00 | 0.00 | 0.00 | 63 | 1006.3 | |
| 20260506171029 | 55 | 0.0 | 0.0 | 0.00 | 0.00 | 0.00 | 63 | 1006.3 | |
| 20260506170527 | 56 | 0.0 | 0.0 | 0.00 | 0.00 | 0.00 | 62 | 1006.2 | |
| 20260506170046 | 57 | 8 | 0.9 | 2.6 | 0.00 | 0.00 | 0.00 | 58 | 1006.2 |
| 20260506165524 | 57 | 189 | 0.0 | 1.7 | 0.00 | 0.00 | 0.00 | 55 | 1006.1 |
| 20260506165022 | 57 | 202 | 0.0 | 1.7 | 0.00 | 0.00 | 0.00 | 55 | 1006.1 |
| 20260506164520 | 57 | 0.0 | 0.0 | 0.00 | 0.00 | 0.00 | 56 | 1006.1 | |
| 20260506164039 | 57 | 0.0 | 0.0 | 0.00 | 0.00 | 0.00 | 55 | 1006.2 | |
| 20260506163537 | 58 | 0.0 | 0.0 | 0.00 | 0.00 | 0.00 | 55 | 1006.2 | |
| 20260506163035 | 57 | 21 | 0.0 | 0.9 | 0.00 | 0.00 | 0.00 | 56 | 1006.3 |
| 20260506162533 | 58 | 338 | 1.7 | 3.5 | 0.00 | 0.00 | 0.00 | 56 | 1006.2 |
| 20260506162032 | 58 | 146 | 0.9 | 2.6 | 0.00 | 0.00 | 0.00 | 53 | 1006.2 |
| 20260506161530 | 58 | 329 | 0.9 | 2.6 | 0.00 | 0.00 | 0.00 | 52 | 1006.3 |
| 20260506161028 | 56 | 295 | 0.9 | 2.6 | 0.00 | 0.00 | 0.00 | 54 | 1006.2 |
| 20260506160526 | 56 | 168 | 0.9 | 2.6 | 0.00 | 0.00 | 0.00 | 55 | 1006.2 |
| 20260506160025 | 56 | 183 | 0.9 | 2.6 | 0.00 | 0.00 | 0.00 | 58 | 1006.3 |
| 20260506155523 | 56 | 176 | 0.9 | 1.7 | 0.00 | 0.00 | 0.00 | 59 | 1006.2 |
| 20260506155021 | 56 | 183 | 1.7 | 3.5 | 0.00 | 0.00 | 0.00 | 59 | 1006.2 |
| 20260506154519 | 56 | 188 | 1.7 | 2.6 | 0.00 | 0.00 | 0.00 | 59 | 1006.2 |
| 20260506154018 | 57 | 189 | 0.9 | 2.6 | 0.00 | 0.00 | 0.00 | 58 | 1006.2 |
| 20260506153516 | 57 | 308 | 0.0 | 0.9 | 0.00 | 0.00 | 0.00 | 58 | 1006.2 |
| 20260506153034 | 56 | 359 | 0.9 | 2.6 | 0.00 | 0.00 | 0.00 | 57 | 1006.1 |
| 20260506152533 | 57 | 340 | 0.0 | 2.6 | 0.00 | 0.00 | 0.00 | 59 | 1006.2 |
| 20260506152031 | 56 | 147 | 0.0 | 0.9 | 0.00 | 0.00 | 0.00 | 58 | 1006.1 |
| 20260506151529 | 56 | 206 | 0.0 | 1.7 | 0.00 | 0.00 | 0.00 | 59 | 1006.1 |
| 20260506151028 | 56 | 172 | 0.9 | 2.6 | 0.00 | 0.00 | 0.00 | 59 | 1006.1 |
| 20260506150525 | 57 | 165 | 0.9 | 2.6 | 0.00 | 0.00 | 0.00 | 58 | 1006.2 |
| 20260506150044 | 57 | 169 | 0.0 | 1.7 | 0.00 | 0.00 | 0.00 | 58 | 1006.3 |
| 20260506145522 | 57 | 238 | 0.0 | 1.7 | 0.00 | 0.00 | 0.00 | 58 | 1006.2 |
| 20260506145020 | 56 | 222 | 0.9 | 2.6 | 0.00 | 0.00 | 0.00 | 56 | 1006.2 |
| 20260506144539 | 56 | 194 | 0.9 | 6.1 | 0.00 | 0.00 | 0.00 | 56 | 1006.1 |
| 20260506144017 | 56 | 221 | 1.7 | 7.0 | 0.00 | 0.00 | 0.00 | 57 | 1006.2 |
| 20260506143535 | 56 | 148 | 2.6 | 9.6 | 0.00 | 0.00 | 0.00 | 57 | 1006.2 |
| 20260506143034 | 57 | 159 | 2.6 | 7.0 | 0.00 | 0.00 | 0.00 | 56 | 1006.2 |
| 20260506142532 | 57 | 268 | 0.9 | 3.5 | 0.00 | 0.00 | 0.00 | 54 | 1006.1 |
| 20260506142050 | 58 | 352 | 4.3 | 7.8 | 0.00 | 0.00 | 0.00 | 50 | 1006.1 |
| 20260506141549 | 58 | 352 | 7.0 | 13.9 | 0.00 | 0.00 | 0.00 | 49 | 1006.1 |
| 20260506141027 | 58 | 5 | 8.7 | 15.6 | 0.00 | 0.00 | 0.00 | 49 | 1005.9 |
| 20260506140524 | 58 | 355 | 6.1 | 11.3 | 0.00 | 0.00 | 0.00 | 49 | 1005.8 |
| 20260506140023 | 59 | 23 | 7.8 | 15.6 | 0.00 | 0.00 | 0.00 | 48 | 1005.9 |
| 20260506135521 | 59 | 360 | 7.0 | 13.9 | 0.00 | 0.00 | 0.00 | 48 | 1005.8 |
| 20260506135019 | 59 | 7 | 7.0 | 13.9 | 0.00 | 0.00 | 0.00 | 47 | 1005.8 |
| 20260506134518 | 59 | 15 | 7.8 | 15.6 | 0.00 | 0.00 | 0.00 | 47 | 1005.8 |
| 20260506134056 | 58 | 354 | 6.1 | 12.2 | 0.00 | 0.00 | 0.00 | 47 | 1005.9 |
| 20260506133534 | 59 | 12 | 7.0 | 13.0 | 0.00 | 0.00 | 0.00 | 47 | 1006.1 |
| 20260506133033 | 59 | 10 | 7.0 | 13.0 | 0.00 | 0.00 | 0.00 | 47 | 1006.0 |
| 20260506132531 | 59 | 18 | 6.1 | 13.9 | 0.00 | 0.00 | 0.00 | 46 | 1005.9 |
| 20260506132030 | 59 | 4 | 6.1 | 11.3 | 0.00 | 0.00 | 0.00 | 46 | 1006.1 |
| 20260506131548 | 59 | 22 | 4.3 | 11.3 | 0.00 | 0.00 | 0.00 | 46 | 1005.9 |
| 20260506131026 | 59 | 33 | 5.2 | 13.9 | 0.00 | 0.00 | 0.00 | 47 | 1006.1 |
| 20260506130524 | 59 | 4 | 6.1 | 12.2 | 0.00 | 0.00 | 0.00 | 46 | 1006.2 |
| 20260506130022 | 60 | 1 | 7.0 | 13.9 | 0.00 | 0.00 | 0.00 | 44 | 1006.0 |
| 20260506125520 | 60 | 7 | 7.8 | 20.9 | 0.00 | 0.00 | 0.00 | 44 | 1005.8 |
| 20260506125039 | 61 | 360 | 7.0 | 14.8 | 0.00 | 0.00 | 0.00 | 44 | 1005.6 |
| 20260506124517 | 60 | 352 | 1.7 | 6.1 | 0.00 | 0.00 | 0.00 | 45 | 1005.8 |
| 20260506124016 | 60 | 6 | 6.1 | 16.5 | 0.00 | 0.00 | 0.00 | 44 | 1005.8 |
| 20260506123554 | 60 | 13 | 7.0 | 16.5 | 0.00 | 0.00 | 0.00 | 45 | 1005.8 |
| 20260506123052 | 62 | 23 | 8.7 | 15.6 | 0.00 | 0.00 | 0.00 | 44 | 1005.5 |
| 20260506122530 | 62 | 339 | 7.8 | 14.8 | 0.00 | 0.00 | 0.00 | 44 | 1005.6 |
| 20260506122028 | 61 | 10 | 5.2 | 12.2 | 0.00 | 0.00 | 0.00 | 44 | 1005.5 |
| 20260506121527 | 61 | 358 | 6.1 | 12.2 | 0.00 | 0.00 | 0.00 | 45 | 1005.4 |
| 20260506121025 | 60 | 7 | 7.0 | 16.5 | 0.00 | 0.00 | 0.00 | 46 | 1005.4 |
| 20260506120523 | 60 | 5 | 7.0 | 21.7 | 0.00 | 0.00 | 0.00 | 46 | 1005.6 |
| 20260506120041 | 60 | 2 | 7.8 | 15.6 | 0.00 | 0.00 | 0.00 | 47 | 1005.7 |
| 20260506115520 | 60 | 8 | 8.7 | 18.2 | 0.00 | 0.00 | 0.00 | 48 | 1005.5 |
| 20260506115018 | 59 | 18 | 6.1 | 12.2 | 0.00 | 0.00 | 0.00 | 50 | 1005.7 |
| 20260506114516 | 57 | 331 | 1.7 | 7.8 | 0.00 | 0.00 | 0.00 | 51 | 1005.9 |
| 20260506114055 | 56 | 357 | 4.3 | 9.6 | 0.00 | 0.00 | 0.00 | 54 | 1005.9 |
| 20260506113533 | 57 | 355 | 7.8 | 14.8 | 0.00 | 0.00 | 0.00 | 55 | 1005.9 |
| 20260506113031 | 57 | 0 | 5.2 | 9.6 | 0.00 | 0.00 | 0.00 | 52 | 1005.9 |
| 20260506112529 | 57 | 359 | 5.2 | 13.9 | 0.00 | 0.00 | 0.00 | 51 | 1005.8 |
| 20260506112028 | 56 | 353 | 7.0 | 12.2 | 0.00 | 0.00 | 0.00 | 51 | 1005.9 |
| 20260506111526 | 57 | 5 | 7.8 | 13.9 | 0.00 | 0.00 | 0.00 | 50 | 1005.9 |
| 20260506111024 | 57 | 2 | 4.3 | 9.6 | 0.00 | 0.00 | 0.00 | 50 | 1006.1 |
| 20260506110543 | 58 | 349 | 7.0 | 13.0 | 0.00 | 0.00 | 0.00 | 49 | 1006.0 |
| 20260506110020 | 57 | 10 | 2.6 | 11.3 | 0.00 | 0.00 | 0.00 | 50 | 1006.1 |
| 20260506105519 | 57 | 19 | 3.5 | 8.7 | 0.00 | 0.00 | 0.00 | 50 | 1006.2 |
| 20260506105017 | 57 | 11 | 3.5 | 11.3 | 0.00 | 0.00 | 0.00 | 50 | 1006.2 |
| 20260506104516 | 57 | 16 | 5.2 | 12.2 | 0.00 | 0.00 | 0.00 | 49 | 1006.3 |
| 20260506104034 | 57 | 26 | 7.0 | 11.3 | 0.00 | 0.00 | 0.00 | 49 | 1006.1 |
| 20260506103532 | 58 | 8 | 7.0 | 16.5 | 0.00 | 0.00 | 0.00 | 49 | 1006.1 |
| 20260506103030 | 58 | 15 | 8.7 | 14.8 | 0.00 | 0.00 | 0.00 | 49 | 1006.2 |
| 20260506102529 | 58 | 10 | 6.1 | 12.2 | 0.00 | 0.00 | 0.00 | 49 | 1006.5 |
| 20260506102047 | 57 | 6 | 7.0 | 14.8 | 0.00 | 0.00 | 0.00 | 49 | 1006.5 |
| 20260506101546 | 57 | 18 | 8.7 | 16.5 | 0.00 | 0.00 | 0.00 | 50 | 1006.5 |
| 20260506101024 | 57 | 18 | 8.7 | 16.5 | 0.00 | 0.00 | 0.00 | 50 | 1006.6 |
| 20260506100522 | 57 | 7 | 7.0 | 15.6 | 0.00 | 0.00 | 0.00 | 51 | 1006.6 |
| 20260506100020 | 56 | 11 | 9.6 | 18.2 | 0.00 | 0.00 | 0.00 | 52 | 1006.6 |
| 20260506095519 | 55 | 25 | 7.8 | 13.0 | 0.00 | 0.00 | 0.00 | 53 | 1006.6 |
| 20260506095016 | 55 | 24 | 8.7 | 15.6 | 0.00 | 0.00 | 0.00 | 54 | 1006.9 |
| 20260506094535 | 55 | 339 | 7.0 | 13.0 | 0.00 | 0.00 | 0.00 | 54 | 1006.9 |
| 20260506094033 | 55 | 17 | 7.8 | 13.9 | 0.00 | 0.00 | 0.00 | 55 | 1006.9 |
| 20260506093531 | 55 | 10 | 7.8 | 16.5 | 0.00 | 0.00 | 0.00 | 54 | 1006.8 |
| 20260506093029 | 54 | 4 | 6.1 | 16.5 | 0.00 | 0.00 | 0.00 | 57 | 1007.1 |
| 20260506092607 | 54 | 3 | 7.8 | 15.6 | 0.00 | 0.00 | 0.00 | 58 | 1007.3 |
| 20260506092026 | 53 | 340 | 1.7 | 6.1 | 0.00 | 0.00 | 0.00 | 59 | 1007.5 |
| 20260506091524 | 53 | 359 | 4.3 | 11.3 | 0.00 | 0.00 | 0.00 | 59 | 1007.5 |
| 20260506091022 | 53 | 13 | 6.1 | 14.8 | 0.00 | 0.00 | 0.00 | 56 | 1007.4 |
| 20260506090521 | 54 | 15 | 5.2 | 9.6 | 0.00 | 0.00 | 0.00 | 56 | 1007.3 |
| 20260506090019 | 54 | 6 | 7.0 | 13.9 | 0.00 | 0.00 | 0.00 | 57 | 1007.3 |
| 20260506085517 | 53 | 17 | 6.1 | 12.2 | 0.00 | 0.00 | 0.00 | 57 | 1007.2 |
| 20260506085015 | 53 | 28 | 2.6 | 8.7 | 0.00 | 0.00 | 0.00 | 58 | 1007.4 |
| 20260506084534 | 53 | 338 | 5.2 | 9.6 | 0.00 | 0.00 | 0.00 | 58 | 1007.5 |
| 20260506084032 | 54 | 352 | 4.3 | 12.2 | 0.00 | 0.00 | 0.00 | 57 | 1007.2 |
| 20260506083530 | 54 | 339 | 6.1 | 11.3 | 0.00 | 0.00 | 0.00 | 57 | 1007.1 |
| 20260506083028 | 54 | 348 | 2.6 | 12.2 | 0.00 | 0.00 | 0.00 | 56 | 1007.5 |
| 20260506082527 | 55 | 56 | 1.7 | 8.7 | 0.00 | 0.00 | 0.00 | 53 | 1007.6 |
| 20260506082105 | 55 | 355 | 2.6 | 9.6 | 0.00 | 0.00 | 0.00 | 52 | 1007.4 |
| 20260506081523 | 55 | 291 | 0.9 | 5.2 | 0.00 | 0.00 | 0.00 | 51 | 1007.5 |
| 20260506081021 | 55 | 12 | 1.7 | 6.1 | 0.00 | 0.00 | 0.00 | 51 | 1007.0 |
| 20260506080519 | 55 | 39 | 0.9 | 5.2 | 0.00 | 0.00 | 0.00 | 52 | 1006.8 |
| 20260506073028 | 51 | 0.0 | 0.0 | 0.00 | 0.00 | 0.00 | 69 | 1007.2 | |
| 20260506072526 | 50 | 181 | 0.9 | 2.6 | 0.00 | 0.00 | 0.00 | 70 | 1007.4 |
| 20260506072044 | 50 | 318 | 0.9 | 1.7 | 0.00 | 0.00 | 0.00 | 68 | 1007.4 |
| 20260506071523 | 49 | 176 | 0.0 | 1.7 | 0.00 | 0.00 | 0.00 | 68 | 1007.3 |
| 20260506071021 | 49 | 34 | 0.0 | 0.9 | 0.00 | 0.00 | 0.00 | 69 | 1007.5 |
| 20260506070539 | 49 | 0.0 | 0.0 | 0.00 | 0.00 | 0.00 | 68 | 1007.5 | |
| 20260506062044 | 47 | 338 | 0.0 | 0.9 | 0.00 | 0.00 | 0.00 | 74 | 1008.0 |
| 20260506061521 | 47 | 6 | 0.0 | 0.9 | 0.00 | 0.00 | 0.00 | 74 | 1008.0 |
| 20260506061020 | 46 | 0.0 | 0.0 | 0.00 | 0.00 | 0.00 | 76 | 1008.0 | |
| 20260506060518 | 45 | 0.0 | 0.0 | 0.00 | 0.00 | 0.00 | 76 | 1007.9 | |
| 20260506051019 | 44 | 0.0 | 0.0 | 0.00 | 0.00 | 0.00 | 79 | 1008.1 | |
| 20260506050518 | 43 | 0.0 | 0.0 | 0.00 | 0.00 | 0.00 | 80 | 1008.1 | |
| 20260506045032 | 43 | 0.0 | 0.0 | 0.00 | 0.00 | 0.00 | 80 | 1008.3 | |
| 20260506044531 | 43 | 0.0 | 0.0 | 0.00 | 0.00 | 0.00 | 80 | 1008.3 | |
| 20260506044029 | 42 | 232 | 0.0 | 0.9 | 0.00 | 0.00 | 0.00 | 81 | 1008.5 |
| 20260506043527 | 42 | 17 | 0.0 | 0.9 | 0.00 | 0.00 | 0.00 | 81 | 1008.5 |
| 20260506043046 | 42 | 352 | 0.0 | 0.9 | 0.00 | 0.00 | 0.00 | 80 | 1008.4 |
| 20260506042524 | 43 | 0.0 | 0.0 | 0.00 | 0.00 | 0.00 | 81 | 1008.5 | |
| 20260506042022 | 43 | 352 | 0.0 | 1.7 | 0.00 | 0.00 | 0.00 | 80 | 1008.7 |
| 20260506041521 | 43 | 0.0 | 0.0 | 0.00 | 0.00 | 0.00 | 81 | 1008.7 | |
| 20260506041019 | 43 | 0.0 | 0.0 | 0.00 | 0.00 | 0.00 | 81 | 1008.8 | |
| 20260506040518 | 42 | 0.0 | 0.0 | 0.00 | 0.00 | 0.00 | 81 | 1008.9 | |
| 20260506040016 | 42 | 166 | 0.0 | 0.9 | 0.00 | 0.00 | 0.00 | 81 | 1009.0 |
| 20260506035555 | 42 | 344 | 0.0 | 1.7 | 0.00 | 0.00 | 0.00 | 80 | 1008.8 |
| 20260506035032 | 42 | 322 | 0.0 | 2.6 | 0.00 | 0.00 | 0.00 | 81 | 1008.9 |
| 20260506034531 | 43 | 0.0 | 0.0 | 0.00 | 0.00 | 0.00 | 80 | 1008.8 | |
| 20260506034029 | 42 | 0.0 | 0.0 | 0.00 | 0.00 | 0.00 | 81 | 1009.0 | |
| 20260506033527 | 42 | 0.0 | 0.0 | 0.00 | 0.00 | 0.00 | 81 | 1009.0 | |
| 20260506033026 | 43 | 0.0 | 0.0 | 0.00 | 0.00 | 0.00 | 81 | 1008.9 | |
| 20260506032544 | 43 | 0.0 | 0.0 | 0.00 | 0.00 | 0.00 | 81 | 1009.0 | |
| 20260506032023 | 43 | 0.0 | 0.0 | 0.00 | 0.00 | 0.00 | 81 | 1009.0 | |
| 20260506031521 | 43 | 0.0 | 0.0 | 0.00 | 0.00 | 0.00 | 80 | 1009.0 | |
| 20260506031019 | 43 | 0.0 | 0.0 | 0.00 | 0.00 | 0.00 | 80 | 1009.1 | |
| 20260506030518 | 43 | 0.0 | 0.0 | 0.00 | 0.00 | 0.00 | 80 | 1009.1 | |
| 20260506030016 | 43 | 0.0 | 0.0 | 0.00 | 0.00 | 0.00 | 79 | 1009.1 | |
| 20260506025534 | 43 | 0.0 | 0.0 | 0.00 | 0.00 | 0.00 | 79 | 1009.1 | |
| 20260506025033 | 43 | 0.0 | 0.0 | 0.00 | 0.00 | 0.00 | 80 | 1009.3 | |
| 20260506024531 | 43 | 0.0 | 0.0 | 0.00 | 0.00 | 0.00 | 79 | 1009.2 | |
| 20260506024029 | 43 | 0.0 | 0.0 | 0.00 | 0.00 | 0.00 | 79 | 1009.4 | |
| 20260506023527 | 43 | 0.0 | 0.0 | 0.00 | 0.00 | 0.00 | 80 | 1009.6 | |
| 20260506023026 | 43 | 0.0 | 0.0 | 0.00 | 0.00 | 0.00 | 79 | 1009.7 | |
| 20260506022544 | 43 | 0.0 | 0.0 | 0.00 | 0.00 | 0.00 | 79 | 1009.7 | |
| 20260506022023 | 43 | 0.0 | 0.0 | 0.00 | 0.00 | 0.00 | 78 | 1009.7 | |
| 20260506021521 | 43 | 0.0 | 0.0 | 0.00 | 0.00 | 0.00 | 79 | 1009.9 | |
| 20260506021019 | 43 | 0.0 | 0.0 | 0.00 | 0.00 | 0.00 | 78 | 1009.9 | |
| 20260506020517 | 44 | 0.0 | 0.0 | 0.00 | 0.00 | 0.00 | 77 | 1009.8 | |
| 20260506020015 | 44 | 320 | 0.0 | 0.9 | 0.00 | 0.00 | 0.00 | 76 | 1010.0 |
| 20260506015534 | 44 | 0.0 | 0.0 | 0.00 | 0.00 | 0.00 | 75 | 1010.0 | |
| 20260506015032 | 44 | 0.0 | 0.0 | 0.00 | 0.00 | 0.00 | 74 | 1010.0 | |
| 20260506014530 | 44 | 191 | 0.0 | 0.9 | 0.00 | 0.00 | 0.00 | 74 | 1010.2 |
| 20260506014029 | 44 | 201 | 0.0 | 0.9 | 0.00 | 0.00 | 0.00 | 74 | 1010.2 |
| 20260506013547 | 45 | 0.0 | 0.0 | 0.00 | 0.00 | 0.00 | 74 | 1010.1 | |
| 20260506013025 | 45 | 0.0 | 0.0 | 0.00 | 0.00 | 0.00 | 73 | 1010.1 | |
| 20260506012523 | 46 | 0.0 | 0.0 | 0.00 | 0.00 | 0.00 | 71 | 1009.9 | |
| 20260506012042 | 46 | 214 | 0.0 | 1.7 | 0.00 | 0.00 | 0.00 | 70 | 1010.0 |
| 20260506011522 | 45 | 216 | 0.9 | 1.7 | 0.00 | 0.00 | 0.00 | 71 | 1009.7 |
| 20260506011019 | 46 | 0.0 | 0.0 | 0.00 | 0.00 | 0.00 | 71 | 1009.8 | |
| 20260506010517 | 46 | 330 | 0.0 | 0.9 | 0.00 | 0.00 | 0.00 | 69 | 1009.9 |
| 20260506010035 | 46 | 192 | 0.0 | 1.7 | 0.00 | 0.00 | 0.00 | 70 | 1010.0 |
| 20260506005554 | 46 | 135 | 0.0 | 1.7 | 0.00 | 0.00 | 0.00 | 69 | 1010.0 |
| 20260506005032 | 46 | 185 | 0.0 | 0.9 | 0.00 | 0.00 | 0.00 | 69 | 1010.0 |
| 20260506004530 | 46 | 292 | 0.0 | 0.9 | 0.00 | 0.00 | 0.00 | 68 | 1010.0 |
| 20260506004028 | 46 | 0.0 | 0.0 | 0.00 | 0.00 | 0.00 | 68 | 1010.0 | |
| 20260506003527 | 46 | 0.0 | 0.0 | 0.00 | 0.00 | 0.00 | 69 | 1010.0 | |
| 20260506003025 | 46 | 0.0 | 0.0 | 0.00 | 0.00 | 0.00 | 68 | 1010.1 | |
| 20260506002525 | 47 | 0.0 | 0.0 | 0.00 | 0.00 | 0.00 | 68 | 1010.2 | |
| 20260506002023 | 47 | 237 | 0.0 | 1.7 | 0.00 | 0.00 | 0.00 | 67 | 1010.1 |
| 20260506001520 | 47 | 218 | 0.0 | 1.7 | 0.00 | 0.00 | 0.00 | 68 | 1010.0 |
| 20260506001039 | 47 | 247 | 0.0 | 2.6 | 0.00 | 0.00 | 0.00 | 67 | 1010.0 |
| 20260506000517 | 47 | 251 | 0.9 | 3.5 | 0.00 | 0.00 | 0.00 | 67 | 1010.0 |
| 20260506000035 | 47 | 226 | 0.0 | 1.7 | 0.00 | 0.00 | 0.00 | 67 | 1009.9 |
| 20260505235533 | 47 | 243 | 0.9 | 1.7 | 0.00 | 0.00 | 0.00 | 67 | 1009.9 |
| 20260505235032 | 47 | 245 | 0.0 | 1.7 | 0.00 | 0.00 | 0.00 | 68 | 1010.0 |
| 20260505234550 | 47 | 261 | 0.0 | 0.9 | 0.00 | 0.00 | 0.00 | 67 | 1010.1 |
| 20260505234028 | 47 | 225 | 0.0 | 0.9 | 0.00 | 0.00 | 0.00 | 68 | 1010.1 |
| 20260505233527 | 48 | 296 | 0.0 | 0.9 | 0.00 | 0.00 | 0.00 | 67 | 1010.2 |
| 20260505233025 | 48 | 0.0 | 0.0 | 0.00 | 0.00 | 0.00 | 66 | 1010.1 | |
| 20260505232524 | 48 | 265 | 0.0 | 0.9 | 0.00 | 0.00 | 0.00 | 64 | 1010.2 |
| 20260505232042 | 49 | 258 | 0.0 | 0.9 | 0.00 | 0.00 | 0.00 | 64 | 1010.1 |
| 20260505231519 | 49 | 269 | 0.9 | 1.7 | 0.00 | 0.00 | 0.00 | 64 | 1010.1 |
| 20260505231018 | 49 | 248 | 0.9 | 2.6 | 0.00 | 0.00 | 0.00 | 64 | 1010.1 |
| 20260505230516 | 49 | 289 | 0.9 | 2.6 | 0.00 | 0.00 | 0.00 | 65 | 1010.1 |
| 20260505230034 | 48 | 236 | 0.9 | 1.7 | 0.00 | 0.00 | 0.00 | 66 | 1010.2 |
| 20260505225533 | 49 | 218 | 0.0 | 1.7 | 0.00 | 0.00 | 0.00 | 65 | 1010.2 |
| 20260505225031 | 48 | 247 | 0.9 | 2.6 | 0.00 | 0.00 | 0.00 | 66 | 1010.1 |
| 20260505224529 | 48 | 247 | 0.0 | 1.7 | 0.00 | 0.00 | 0.00 | 67 | 1010.3 |
| 20260505224028 | 48 | 0.0 | 0.0 | 0.00 | 0.00 | 0.00 | 68 | 1010.3 | |
| 20260505223526 | 48 | 0.0 | 0.0 | 0.00 | 0.00 | 0.00 | 68 | 1010.2 | |
| 20260505223045 | 49 | 0.0 | 0.0 | 0.00 | 0.00 | 0.00 | 67 | 1010.2 | |
| 20260505222524 | 49 | 246 | 0.0 | 0.9 | 0.00 | 0.00 | 0.00 | 67 | 1010.1 |
| 20260505222021 | 49 | 0.0 | 0.0 | 0.00 | 0.00 | 0.00 | 67 | 1010.1 | |
| 20260505221519 | 48 | 0.0 | 0.0 | 0.00 | 0.00 | 0.00 | 67 | 1010.1 | |
| 20260505221018 | 48 | 0.0 | 0.0 | 0.00 | 0.00 | 0.00 | 70 | 1010.3 | |
| 20260505220516 | 49 | 0.0 | 0.0 | 0.00 | 0.00 | 0.00 | 68 | 1010.2 | |
| 20260505220034 | 49 | 0.0 | 0.0 | 0.00 | 0.00 | 0.00 | 66 | 1010.2 |